Location: Eitze
(52.9840°N, 9.6894°E)
Time: 17:39:47
(UTC+00:00)

Helios 1A - Pass Details

Date: 19 May 2025
Orbit: 544 x 570 km, 98.3° (Epoch: 03 June)

Event Time Altitude Azimuth Distance (km) Brightness Sun altitude
Rises 20:40:44 0° 10° (N) 2,791 7.1 -9.5°
Reaches altitude 10° 20:42:58 10° 5° (N) 1,887 6.3 -9.7°
Maximum altitude 20:46:51 45° 293° (WNW) 785 4.1 -10.1°
Drops below altitude 10° 20:50:42 10° 220° (SW) 1,862 5.4 -10.4°
Sets 20:52:53 0° 214° (SW) 2,750 6.2 -10.6°
